Temperature
4 3 3 4 4 3 2 2 1 1 -0 -1 -1 -1 -1 -2 -4 -6 -7 -8 -9 -9 -10 -10 -10 -11 -11 -11 -12 -13 -13 -13 -13 -13 -13 -12 -12 -11 -11 -11 -10 -9 -9 -8
4 2 2 3 2 2 2 1 0 -0 -1 0 1 -1 -2 -4 -6 -7 -8 -9 -9 -10 -10 -11 -11 -12 -12 -12 -13 -13 -13 -13 -13 -13 -13 -13 -13 -12 -12 -11 -11 -10 -9 -9
4 1 2 3 2 2 2 1 0 -1 -0 -1 -1 -2 -3 -5 -7 -8 -8 -9 -10 -10 -11 -11 -12 -12 -12 -13 -13 -13 -13 -14 -14 -14 -14 -13 -14 -13 -13 -12 -11 -11 -10 -10
1 2 7 3 2 2 1 1 -0 -0 -0 -0 -1 -2 -3 -6 -7 -7 -9 -9 -10 -10 -11 -11 -12 -12 -13 -13 -13 -13 -13 -14 -14 -14 -14 -14 -14 -14 -13 -13 -12 -12 -11 -11
1 2 4 2 1 1 0 -0 0 0 0 -0 -2 -3 -4 -6 -7 -8 -9 -10 -10 -11 -11 -11 -12 -12 -13 -13 -13 -14 -14 -14 -14 -14 -14 -15 -15 -14 -14 -13 -13 -12 -12 -11
-2 2 5 3 2 2 1 -1 1 0 -0 -2 -3 -3 -5 -7 -8 -8 -9 -9 -10 -10 -11 -11 -12 -12 -13 -13 -14 -14 -14 -14 -14 -15 -15 -15 -15 -15 -14 -14 -13 -13 -12 -12
-2 1 2 1 1 1 0 1 1 0 -1 -2 -4 -5 -6 -7 -7 -8 -8 -9 -10 -10 -10 -11 -12 -12 -13 -13 -14 -14 -14 -14 -14 -14 -15 -15 -15 -15 -14 -14 -14 -13 -13 -13
-1 0 2 2 0 -0 1 2 1 -0 -1 -3 -4 -6 -6 -7 -7 -8 -8 -9 -9 -10 -10 -11 -12 -13 -13 -14 -14 -14 -14 -14 -14 -14 -15 -15 -15 -14 -14 -14 -14 -14 -14 -14
1 2 2 2 3 3 2 1 0 -1 -2 -4 -5 -6 -7 -7 -7 -8 -9 -9 -9 -10 -10 -11 -12 -13 -13 -14 -14 -14 -14 -14 -14 -14 -14 -15 -14 -14 -14 -14 -14 -15 -15 -14
2 1 1 2 2 2 1 1 -0 -1 -3 -4 -5 -6 -7 -7 -8 -8 -8 -9 -9 -10 -10 -11 -11 -12 -13 -13 -14 -14 -14 -14 -14 -14 -14 -14 -14 -14 -14 -15 -15 -15 -14 -15
-0 0 1 2 2 1 1 0 -1 -2 -4 -5 -5 -6 -7 -7 -8 -8 -8 -9 -9 -10 -10 -11 -11 -12 -13 -13 -14 -14 -14 -13 -13 -14 -14 -14 -14 -14 -14 -14 -15 -14 -14 -15
2 2 2 1 1 1 0 -0 -2 -3 -4 -5 -6 -7 -7 -7 -8 -8 -8 -9 -9 -10 -10 -10 -11 -12 -12 -13 -13 -13 -13 -13 -13 -14 -15 -15 -15 -14 -14 -15 -15 -15 -15 -14
3 3 2 1 1 0 -0 -1 -3 -4 -5 -6 -6 -7 -7 -7 -8 -8 -9 -9 -9 -10 -10 -10 -11 -11 -12 -12 -12 -12 -13 -13 -14 -15 -15 -15 -15 -15 -14 -15 -15 -15 -16 -15
2 2 1 1 1 -0 -1 -3 -4 -5 -6 -6 -6 -7 -7 -7 -8 -8 -8 -9 -9 -10 -10 -10 -11 -11 -11 -12 -12 -12 -12 -12 -13 -14 -14 -14 -14 -14 -15 -15 -16 -15 -15 -15
2 1 1 1 -0 -1 -3 -4 -5 -6 -6 -6 -6 -7 -7 -7 -8 -8 -9 -9 -9 -9 -10 -10 -10 -10 -11 -11 -11 -11 -12 -12 -13 -14 -14 -14 -14 -14 -15 -15 -15 -15 -15 -15
1 1 1 0 -1 -3 -5 -5 -5 -6 -6 -6 -7 -7 -7 -7 -8 -8 -8 -8 -9 -9 -9 -10 -10 -10 -10 -11 -11 -11 -12 -13 -13 -13 -13 -13 -14 -14 -14 -15 -15 -15 -16 -16
1 0 0 -0 -1 -3 -4 -5 -5 -6 -6 -6 -7 -7 -7 -7 -7 -7 -7 -8 -8 -9 -9 -9 -10 -10 -11 -10 -11 -12 -12 -12 -12 -12 -13 -13 -13 -14 -14 -14 -15 -15 -16 -16
1 1 1 -0 -1 -3 -4 -4 -5 -6 -6 -6 -7 -7 -7 -7 -7 -8 -8 -7 -7 -8 -8 -9 -10 -11 -10 -10 -11 -11 -11 -12 -11 -12 -13 -14 -13 -14 -14 -14 -14 -15 -15 -16
1 1 -0 -1 -2 -3 -4 -4 -5 -6 -6 -6 -7 -7 -7 -7 -8 -8 -8 -8 -7 -8 -8 -9 -10 -10 -9 -10 -11 -10 -11 -12 -11 -12 -13 -14 -13 -14 -14 -14 -14 -15 -15 -15
1 -0 -1 -2 -2 -3 -4 -4 -5 -6 -6 -7 -7 -7 -7 -7 -7 -7 -7 -7 -8 -8 -8 -9 -9 -10 -10 -10 -10 -10 -10 -11 -12 -12 -13 -13 -13 -13 -13 -14 -14 -15 -15 -15
0 -1 -1 -2 -3 -4 -4 -5 -5 -6 -6 -7 -7 -7 -7 -7 -7 -7 -6 -6 -7 -7 -8 -9 -9 -10 -10 -9 -9 -9 -10 -11 -12 -13 -13 -12 -12 -12 -13 -13 -14 -15 -15 -15
-0 -1 -2 -2 -3 -4 -4 -5 -5 -6 -6 -6 -7 -7 -7 -7 -7 -7 -7 -7 -7 -7 -8 -8 -9 -10 -10 -9 -8 -9 -9 -10 -11 -12 -12 -12 -12 -12 -12 -13 -13 -14 -15 -15
-0 -1 -2 -2 -3 -4 -4 -5 -6 -6 -6 -7 -7 -7 -7 -7 -7 -6 -6 -7 -7 -8 -8 -8 -9 -9 -9 -9 -9 -9 -9 -9 -10 -11 -12 -12 -12 -12 -12 -12 -13 -13 -14 -14
-1 -1 -2 -3 -4 -4 -4 -5 -6 -6 -6 -7 -7 -7 -7 -7 -7 -7 -7 -7 -7 -8 -8 -8 -8 -9 -9 -9 -9 -9 -9 -9 -10 -11 -11 -11 -12 -12 -12 -12 -12 -12 -13 -13
-1 -2 -2 -3 -3 -4 -5 -6 -6 -6 -6 -7 -7 -7 -7 -7 -7 -7 -7 -7 -7 -7 -7 -7 -8 -8 -9 -9 -9 -9 -9 -9 -9 -10 -10 -10 -11 -11 -12 -12 -12 -12 -12 -13
-1 -2 -2 -3 -4 -4 -5 -5 -6 -6 -6 -7 -7 -7 -7 -7 -7 -7 -7 -7 -7 -7 -7 -7 -7 -8 -8 -9 -9 -9 -9 -9 -9 -9 -9 -10 -10 -10 -10 -11 -12 -12 -12 -12
-2 -3 -3 -4 -4 -5 -5 -5 -6 -6 -6 -7 -7 -7 -7 -7 -7 -7 -7 -7 -7 -7 -7 -7 -7 -7 -8 -9 -9 -9 -9 -9 -9 -9 -9 -9 -9 -9 -9 -10 -10 -10 -11 -11
Wind_Speed
3 1 2 3 3 3 4 4 4 6 8 9 9 12 11 8 7 11 10 12 11 11 10 11 11 12 12 12 11 12 13 13 14 14 14 15 15 16 16 16 17 18 15 14
2 2 5 4 3 2 3 3 6 7 7 5 9 8 9 8 11 12 12 13 12 13 12 12 11 13 13 12 12 12 13 13 15 15 15 14 15 16 15 15 16 17 16 14
3 5 5 4 5 5 3 5 5 5 5 6 9 11 10 6 8 10 11 12 12 12 11 10 10 12 12 13 12 12 13 13 14 15 15 15 15 15 15 14 15 15 15 15
3 6 5 1 1 2 4 8 6 5 7 8 8 8 4 5 6 9 9 10 10 10 11 9 9 10 11 11 11 12 12 13 13 14 15 15 14 14 14 12 12 12 12 14
2 3 6 2 2 2 3 6 4 5 7 8 6 7 1 4 5 7 5 6 7 7 8 9 9 10 11 11 11 12 12 13 13 13 14 14 14 14 14 12 12 11 11 12
2 2 6 2 2 3 2 4 5 4 6 6 6 10 5 4 5 6 6 7 7 7 8 8 9 9 10 11 11 12 13 14 13 13 13 12 13 12 13 13 13 13 12 11
3 4 8 4 5 4 1 3 3 2 3 2 1 4 5 5 5 6 6 8 8 8 8 8 9 9 10 11 11 13 13 13 13 13 12 11 11 11 12 12 13 12 12 12
4 4 6 7 6 5 4 2 1 0 2 2 2 4 5 5 7 7 8 9 8 8 9 9 8 9 11 12 13 13 13 13 13 13 13 11 10 10 11 11 10 10 10 11
8 8 4 6 4 4 3 1 1 2 1 1 1 3 5 6 7 7 8 9 7 8 10 9 8 9 11 13 13 13 14 14 13 13 12 9 9 9 9 9 9 9 9 10
5 5 5 4 3 2 2 2 3 3 3 3 1 2 4 6 7 7 8 8 9 10 10 11 10 11 12 13 13 13 14 14 14 13 13 9 9 8 8 8 9 9 7 8
5 4 1 3 3 4 4 5 5 6 4 3 2 2 3 5 6 7 8 9 9 9 11 12 12 13 14 13 13 14 15 15 14 13 12 10 10 9 9 9 12 11 7 7
6 6 5 4 5 5 5 5 5 5 4 3 3 2 3 5 6 6 7 8 10 11 12 13 13 15 14 14 13 14 15 14 13 13 12 12 11 12 16 15 19 19 16 13
3 4 5 7 5 4 5 6 7 6 5 3 2 2 4 5 6 9 9 9 10 12 13 14 14 15 15 14 14 15 15 16 14 13 13 13 13 12 11 12 14 16 15 13
5 6 4 3 4 6 7 8 9 7 5 4 3 3 4 5 7 8 9 10 11 12 13 13 14 15 16 14 15 16 16 19 15 12 12 12 12 10 7 8 9 9 11 12
5 5 6 8 8 7 8 8 7 4 2 3 3 3 5 6 8 9 10 11 12 12 12 13 14 16 16 15 16 16 15 13 13 11 11 12 11 10 8 7 7 7 7 8
8 7 7 7 8 8 7 6 6 4 3 1 2 4 5 7 8 9 9 9 9 11 13 13 14 17 16 16 15 14 13 19 17 12 11 11 10 9 8 7 7 6 6 5
10 5 5 6 7 6 6 7 7 6 4 2 2 4 6 7 8 9 11 10 9 10 12 12 15 18 16 14 14 11 10 13 18 13 11 11 11 10 9 7 6 5 5 7
6 7 8 8 10 9 8 7 7 6 3 2 1 3 6 7 9 11 13 13 12 11 11 12 15 15 13 12 12 10 10 11 11 11 12 11 11 10 9 7 6 5 4 6
8 8 8 9 10 10 9 8 7 6 4 2 2 4 5 6 8 10 10 9 10 11 13 16 23 19 15 16 16 10 10 11 12 12 12 16 15 12 11 9 5 3 3 4
9 8 9 9 9 8 8 8 8 6 3 2 3 4 6 8 9 9 8 7 7 8 13 13 15 15 13 13 16 10 10 12 13 13 13 13 12 12 11 11 9 6 4 3
10 10 10 10 8 8 9 9 8 6 4 2 1 3 6 9 9 8 7 7 9 13 14 17 14 13 10 14 14 10 11 12 12 12 12 11 11 11 11 11 10 8 7 5
9 10 10 10 10 8 7 7 7 6 4 2 1 3 6 8 9 9 7 5 9 17 11 8 11 16 20 17 10 11 12 12 12 11 10 10 10 10 10 10 9 9 7 6
10 10 10 10 10 9 8 6 6 6 4 2 1 4 4 7 6 6 7 8 9 15 10 8 16 23 22 13 11 11 12 12 12 11 9 9 8 8 8 9 9 8 7 6
10 10 9 8 9 9 8 7 6 4 3 2 3 4 4 5 5 4 5 12 15 15 9 12 19 22 19 10 10 11 12 12 12 11 10 9 7 7 6 7 7 7 7 7
10 9 10 10 9 8 7 8 6 3 3 2 3 4 3 3 4 6 6 8 14 13 8 14 18 19 13 9 10 11 12 12 13 12 10 9 7 6 6 6 6 7 6 6
10 10 9 8 7 7 7 7 5 5 4 2 2 2 3 3 5 5 5 7 9 11 8 8 11 12 10 9 9 11 12 13 14 14 13 10 8 7 6 7 7 7 6 6
8 9 7 5 5 6 8 8 6 5 6 5 3 2 3 4 5 6 6 6 6 6 7 8 10 11 11 11 11 11 13 14 15 15 13 12 9 6 6 7 7 8 8 9
Wind_Direction
259 357 296 249 229 192 189 194 220 281 300 302 315 323 321 326 332 338 342 338 345 344 341 338 338 340 337 335 333 335 334 333 333 331 329 329 331 334 333 334 333 333 333 344
275 316 309 254 205 189 215 216 258 286 287 280 305 311 318 331 338 339 338 339 346 342 341 339 341 340 335 331 330 333 332 329 330 331 331 331 333 336 335 336 337 337 337 341
286 327 320 284 213 192 230 232 234 263 272 303 316 326 324 337 350 335 337 341 340 338 336 333 337 336 331 327 328 331 330 327 328 329 331 333 336 337 336 335 337 339 337 339
303 338 306 282 219 157 258 267 241 260 292 305 298 303 332 45 356 337 335 334 329 332 330 325 328 330 326 324 326 329 330 328 328 330 331 332 337 338 335 334 334 335 334 338
351 278 287 267 230 192 231 279 227 224 285 302 311 307 10 38 354 329 323 317 315 317 313 317 322 327 326 323 326 328 331 330 329 329 331 333 339 337 336 335 337 337 336 338
111 295 284 228 189 138 132 286 237 245 286 304 334 333 345 357 333 327 328 317 313 316 315 317 319 323 324 323 323 326 329 329 326 327 329 333 337 331 333 336 339 339 340 344
158 236 268 220 158 134 87 272 228 228 275 281 261 309 332 337 334 332 325 318 322 320 316 314 314 320 321 319 317 320 322 323 324 324 322 333 334 328 328 331 335 336 342 347
163 240 270 173 152 186 212 218 240 216 230 265 321 330 326 328 335 333 327 326 322 319 317 313 312 317 316 312 313 315 317 316 317 317 318 322 325 323 325 327 330 329 341 347
201 220 220 194 196 183 158 187 153 183 192 95 352 325 328 334 331 329 324 323 321 316 313 313 311 313 309 306 309 313 314 310 308 308 308 306 316 316 320 322 324 323 342 345
255 232 210 219 220 147 111 127 135 125 120 116 157 306 336 339 333 329 325 330 329 323 318 315 315 311 305 303 307 309 308 307 306 304 306 303 306 305 306 308 310 314 334 333
247 242 220 248 187 147 125 112 106 84 92 107 118 12 333 328 328 323 323 330 328 321 315 310 312 311 308 308 308 305 306 307 307 305 302 295 293 294 297 297 298 313 323 320
219 192 161 158 139 130 129 132 125 120 110 74 66 26 334 327 324 316 324 327 324 318 313 311 314 311 308 307 306 303 305 306 307 308 306 307 304 297 294 302 314 319 320 318
160 146 117 122 113 106 112 116 105 102 112 117 83 36 349 332 325 330 327 323 321 314 311 311 312 310 309 307 306 304 303 305 309 312 310 306 303 299 299 305 315 319 321 319
136 119 120 149 132 110 106 109 105 97 96 88 72 33 359 335 324 325 316 315 312 309 309 312 313 309 309 308 307 306 306 311 316 307 302 301 305 308 301 305 318 319 322 324
115 100 128 133 123 118 118 112 110 120 112 86 45 16 355 335 321 313 308 311 316 315 314 316 312 308 309 309 311 311 311 313 315 313 315 321 323 318 308 300 302 301 307 317
121 117 129 138 144 140 134 129 139 159 148 111 5 346 330 312 301 302 304 309 316 316 315 312 309 309 310 312 312 311 310 319 330 331 327 323 318 311 303 296 292 288 288 293
133 163 174 170 162 147 142 148 155 156 153 149 292 317 324 324 324 328 325 324 313 303 303 304 308 310 312 317 317 314 318 329 337 333 323 318 313 306 302 293 284 282 280 288
144 159 166 164 154 145 140 137 136 144 153 169 297 342 349 350 336 323 321 324 325 324 318 316 316 320 326 327 328 340 335 329 330 331 327 325 330 330 323 314 300 294 291 302
134 130 127 126 136 143 146 145 149 150 142 118 33 357 335 319 310 307 309 318 323 330 325 321 328 335 327 333 348 345 333 335 338 339 339 349 355 357 351 344 328 293 290 300
125 120 118 117 123 136 138 144 144 141 140 95 37 354 340 326 316 310 307 301 293 297 306 323 331 326 323 342 355 347 338 341 341 341 347 0 359 356 354 356 3 3 353 333
138 135 136 139 139 137 139 144 145 147 147 118 51 328 321 315 316 318 324 331 321 324 336 340 332 325 344 357 353 347 342 341 340 341 351 0 355 355 355 1 8 8 8 2
146 147 150 146 142 140 142 146 143 142 152 164 305 321 329 327 327 321 300 283 315 332 343 332 327 350 3 358 349 347 343 339 337 340 355 1 355 352 351 352 0 2 1 356
152 154 154 152 152 147 143 149 150 157 171 184 297 323 320 308 304 318 337 329 330 336 347 332 349 1 4 356 347 345 342 338 336 338 350 359 353 345 343 343 349 349 346 348
153 154 146 134 132 140 160 178 170 170 182 214 262 276 289 317 318 285 295 321 335 342 347 347 358 3 3 352 346 342 339 337 334 337 341 350 350 337 331 331 332 337 341 341
152 141 139 150 163 175 171 159 161 188 209 246 268 267 261 261 282 300 311 323 340 348 342 349 0 1 355 345 345 342 339 336 338 340 341 337 338 333 322 318 320 327 332 325
154 155 163 173 171 160 156 160 174 185 187 187 220 259 296 307 308 313 328 344 342 345 340 339 351 356 348 345 346 343 341 337 337 343 344 334 321 322 319 315 311 313 310 304
142 147 146 151 154 160 168 174 175 185 186 175 188 231 290 317 330 340 349 348 338 331 331 338 346 355 353 348 345 344 344 342 345 348 346 339 321 304 304 304 302 301 301 298
Height
1608 1609 1610 1608 1607 1607 1612 1613 1616 1610 1610 1606 1601 1597 1593 1589 1585 1581 1576 1571 1565 1559 1553 1548 1543 1536 1530 1524 1518 1511 1504 1498 1490 1484 1478 1471 1465 1458 1452 1446 1440 1434 1429 1423
1609 1611 1611 1609 1608 1609 1611 1612 1611 1609 1609 1603 1599 1594 1590 1586 1583 1579 1575 1569 1562 1557 1551 1545 1540 1534 1528 1521 1515 1509 1503 1496 1489 1482 1476 1469 1463 1456 1450 1445 1439 1434 1429 1424
1608 1613 1610 1604 1608 1607 1607 1607 1607 1609 1606 1599 1595 1591 1586 1583 1581 1578 1572 1567 1561 1555 1549 1544 1538 1532 1526 1519 1514 1508 1502 1495 1488 1482 1475 1468 1462 1456 1450 1444 1438 1434 1429 1425
1618 1611 1593 1606 1603 1604 1606 1603 1602 1602 1601 1597 1593 1588 1584 1582 1580 1575 1571 1565 1560 1554 1548 1542 1536 1530 1524 1519 1513 1507 1500 1494 1488 1481 1475 1468 1462 1456 1450 1444 1439 1434 1430 1426
1619 1616 1599 1604 1602 1603 1605 1604 1600 1599 1596 1593 1589 1585 1583 1581 1578 1574 1569 1563 1558 1552 1546 1540 1534 1528 1523 1517 1512 1506 1499 1493 1487 1481 1475 1468 1463 1456 1451 1446 1440 1436 1432 1427
1631 1618 1598 1599 1600 1600 1603 1605 1598 1596 1594 1590 1587 1584 1584 1580 1574 1570 1566 1561 1555 1549 1544 1538 1532 1527 1521 1516 1510 1504 1499 1493 1487 1481 1475 1469 1464 1458 1453 1448 1443 1438 1433 1429
1627 1616 1599 1596 1596 1600 1604 1603 1594 1592 1590 1587 1585 1587 1583 1577 1572 1568 1564 1559 1554 1548 1542 1536 1531 1525 1520 1515 1509 1504 1498 1493 1487 1481 1475 1469 1464 1459 1454 1448 1444 1439 1434 1430
1619 1616 1601 1590 1592 1597 1595 1590 1591 1589 1587 1585 1584 1581 1577 1574 1571 1566 1562 1557 1552 1546 1541 1535 1529 1524 1519 1514 1508 1502 1497 1491 1486 1480 1474 1468 1463 1458 1453 1448 1444 1439 1435 1430
1596 1594 1585 1585 1587 1588 1588 1588 1587 1586 1585 1584 1581 1579 1576 1574 1570 1565 1561 1556 1551 1545 1539 1534 1528 1523 1517 1512 1506 1500 1494 1489 1483 1478 1472 1467 1462 1456 1452 1448 1444 1439 1435 1430
1587 1582 1582 1584 1586 1586 1586 1586 1584 1583 1583 1582 1580 1576 1574 1571 1568 1564 1560 1554 1549 1544 1538 1532 1527 1522 1516 1510 1504 1498 1492 1485 1480 1474 1469 1465 1460 1455 1450 1446 1442 1439 1435 1431
1586 1581 1581 1581 1582 1583 1583 1583 1582 1582 1581 1579 1577 1575 1573 1570 1567 1563 1559 1554 1549 1543 1537 1531 1525 1520 1514 1508 1502 1496 1489 1483 1476 1471 1466 1460 1456 1452 1448 1444 1442 1439 1435 1432
1577 1575 1577 1578 1579 1580 1581 1581 1580 1580 1579 1578 1576 1575 1573 1569 1566 1562 1558 1552 1548 1543 1537 1530 1524 1518 1512 1506 1500 1493 1486 1480 1474 1468 1462 1457 1452 1447 1444 1442 1439 1436 1433 1431
1572 1574 1576 1577 1578 1578 1579 1578 1577 1578 1578 1577 1575 1574 1572 1568 1564 1561 1558 1552 1547 1542 1536 1530 1523 1517 1510 1505 1499 1493 1485 1478 1471 1466 1460 1454 1448 1443 1438 1435 1433 1431 1429 1428
1570 1574 1576 1576 1577 1576 1576 1576 1576 1578 1577 1576 1574 1571 1569 1567 1564 1561 1557 1552 1546 1541 1536 1529 1523 1516 1510 1504 1498 1491 1484 1477 1470 1463 1457 1451 1446 1441 1437 1432 1428 1425 1425 1424
1568 1572 1573 1573 1573 1573 1574 1574 1575 1576 1575 1573 1572 1570 1569 1566 1563 1560 1557 1552 1547 1541 1535 1529 1522 1516 1510 1503 1497 1490 1483 1475 1468 1462 1457 1451 1445 1439 1434 1430 1426 1423 1422 1421
1566 1570 1570 1570 1570 1571 1571 1572 1573 1573 1573 1572 1572 1570 1568 1566 1563 1560 1556 1551 1545 1539 1534 1528 1521 1515 1509 1503 1496 1489 1483 1475 1469 1463 1455 1449 1442 1437 1432 1428 1425 1422 1420 1419
1562 1566 1567 1567 1568 1568 1569 1570 1572 1573 1573 1572 1571 1570 1568 1566 1564 1560 1556 1552 1547 1541 1535 1528 1521 1515 1509 1503 1496 1489 1482 1475 1469 1461 1454 1447 1441 1436 1431 1427 1424 1421 1419 1418
1560 1562 1564 1565 1564 1566 1567 1569 1571 1573 1573 1572 1571 1569 1567 1567 1564 1560 1555 1552 1548 1543 1536 1530 1522 1517 1512 1505 1497 1491 1483 1475 1468 1461 1453 1447 1443 1437 1431 1426 1423 1421 1419 1418
1556 1558 1560 1561 1562 1563 1564 1567 1569 1570 1570 1571 1570 1569 1568 1565 1562 1560 1556 1551 1547 1541 1535 1528 1523 1519 1512 1505 1499 1493 1484 1476 1470 1463 1455 1450 1442 1437 1431 1427 1424 1421 1420 1418
1553 1555 1557 1559 1561 1562 1564 1566 1568 1569 1570 1571 1571 1569 1567 1565 1561 1558 1555 1551 1546 1540 1534 1529 1525 1519 1512 1506 1500 1494 1486 1478 1471 1465 1458 1452 1445 1440 1434 1430 1426 1423 1421 1419
1551 1553 1555 1556 1559 1561 1563 1565 1568 1569 1571 1571 1570 1569 1568 1566 1563 1559 1555 1551 1547 1541 1535 1531 1525 1519 1514 1509 1502 1495 1489 1481 1474 1467 1461 1456 1450 1444 1438 1433 1429 1426 1423 1421
1548 1550 1552 1554 1557 1559 1562 1564 1566 1568 1569 1569 1568 1568 1568 1567 1564 1560 1555 1550 1545 1540 1535 1531 1525 1521 1516 1511 1505 1497 1491 1484 1477 1470 1465 1459 1454 1448 1442 1437 1433 1430 1427 1424
1545 1547 1550 1552 1556 1558 1560 1562 1564 1565 1567 1568 1569 1568 1567 1566 1563 1559 1556 1552 1546 1540 1536 1532 1527 1522 1518 1513 1507 1500 1493 1486 1480 1473 1468 1462 1457 1452 1446 1441 1437 1433 1429 1426
1542 1545 1548 1551 1554 1556 1558 1560 1562 1562 1564 1566 1567 1566 1566 1565 1564 1561 1557 1552 1547 1542 1537 1533 1529 1524 1519 1514 1508 1502 1497 1490 1483 1477 1472 1467 1461 1455 1450 1446 1441 1437 1432 1429
1540 1542 1545 1548 1551 1554 1557 1559 1560 1561 1563 1564 1566 1566 1565 1563 1561 1560 1557 1554 1549 1544 1539 1534 1530 1526 1520 1515 1510 1505 1500 1493 1487 1481 1475 1470 1464 1458 1453 1449 1444 1440 1435 1431
1536 1539 1543 1547 1549 1552 1554 1556 1558 1560 1562 1563 1564 1565 1565 1564 1562 1559 1558 1555 1550 1546 1541 1536 1531 1526 1521 1516 1512 1508 1502 1496 1490 1485 1479 1473 1467 1462 1456 1451 1446 1441 1437 1432
1534 1536 1540 1543 1545 1548 1550 1553 1555 1557 1557 1560 1562 1563 1565 1565 1564 1562 1559 1556 1552 1547 1542 1538 1532 1527 1523 1519 1514 1510 1505 1499 1494 1488 1483 1477 1471 1466 1460 1455 1449 1443 1438 1433